Weather History for KEAT - March, 2015

Change the Weather History Date:

Sunday, March 22, 2015

  Actual Average Record
Temperature  
Mean Temperature 45 °F 46 °F  
Max Temperature 52 °F 56 °F 71 °F (1978)
Min Temperature 38 °F 37 °F 25 °F (1994)
Degree Days  
Heating Degree Days 20 19  
Month to date heating degree days 344 491  
Since 1 July heating degree days 3973 4955  
Cooling Degree Days 0 0  
Month to date cooling degree days 0 0  
Year to date cooling degree days 0 0  
Moisture  
Dew Point 34 °F    
Average Humidity 64    
Maximum Humidity 79    
Minimum Humidity 48    
Precipitation  
Precipitation T in 0.02 in 0.26 in (1983)
Month to date precipitation 0.33 0.48  
Year to date precipitation 1.86 2.35  
Sea Level Pressure  
Sea Level Pressure 30.02 in    
Wind  
Wind Speed 5 mph (WNW)    
Max Wind Speed 17 mph    
Max Gust Speed 20 mph    
Visibility 10 miles    
Events Rain    
T = Trace of Precipitation, MM = Missing Value Source: NWS Daily Summary

Daily Weather History Graph

Daily Weather History Graph

Search for Another Location

Airport or City:

Trip Planner

Search our weather history database for the weather conditions in past years. The results will help you decide how hot, cold, wet, or windy it might be!

Date:

Astronomy

Mar. 22, 2015 Rise Set
Actual Time 7:00 AM PDT 7:16 PM PDT
Civil Twilight 6:29 AM PDT 7:46 PM PDT
Nautical Twilight 5:53 AM PDT 8:23 PM PDT
Astronomical Twilight 5:16 AM PDT 9:00 PM PDT
Moon 8:20 AM PDT (3/22) 10:34 PM PDT (3/22)
Length of Visible Light 13h 17m
Length of Day
12h 16m
Waxing Crescent, 8% of the Moon is Illuminated
Mar 22
Waxing Crescent
Mar 27
First Quarter
Apr 4
Full
Apr 11
Last Quarter
Apr 18
New

Hourly Weather History & Observations

Time (PDT) Temp. Windchill Dew Point Humidity Pressure Visibility Wind Dir Wind Speed Gust Speed Precip Events Conditions
12:55 AM 45.0 °F 42.6 °F 33.1 °F 63% 30.09 in 10.0 mi NNW 4.6 mph - N/A   Clear
1:55 AM 45.0 °F 40.6 °F 33.1 °F 63% 30.09 in 10.0 mi NW 8.1 mph - N/A   Clear
2:55 AM 43.0 °F 39.5 °F 32.0 °F 65% 30.08 in 10.0 mi NNW 5.8 mph - N/A   Clear
3:55 AM 41.0 °F - 32.0 °F 70% 30.07 in 10.0 mi Calm Calm - N/A   Clear
4:55 AM 42.1 °F 38.4 °F 33.1 °F 70% 30.06 in 10.0 mi NNW 5.8 mph - N/A   Clear
5:55 AM 39.9 °F 33.4 °F 33.1 °F 77% 30.06 in 10.0 mi NW 10.4 mph - N/A   Clear
6:55 AM 39.0 °F 34.0 °F 32.0 °F 76% 30.07 in 10.0 mi West 6.9 mph - N/A   Clear
7:55 AM 39.9 °F 35.1 °F 32.0 °F 73% 30.08 in 10.0 mi WNW 6.9 mph - N/A   Overcast
8:55 AM 39.9 °F 35.8 °F 32.0 °F 73% 30.07 in 10.0 mi West 5.8 mph - N/A   Overcast
9:55 AM 42.1 °F 39.2 °F 33.1 °F 70% 30.07 in 10.0 mi West 4.6 mph - N/A   Overcast
10:55 AM 45.0 °F 41.8 °F 32.0 °F 60% 30.05 in 10.0 mi WNW 5.8 mph - N/A   Mostly Cloudy
11:55 AM 46.0 °F 42.5 °F 30.9 °F 56% 30.03 in 10.0 mi West 6.9 mph - N/A   Overcast
12:55 PM 46.0 °F - 32.0 °F 58% 30.02 in 10.0 mi Calm Calm - 0.00 in Rain Light Rain
1:55 PM 48.9 °F - 32.0 °F 52% 30.01 in 10.0 mi Calm Calm - 0.00 in Rain Light Rain
2:55 PM 48.9 °F - 33.1 °F 54% 29.99 in 10.0 mi SSW 3.5 mph - 0.00 in   Overcast
3:55 PM 51.1 °F - 32.0 °F 48% 29.98 in 10.0 mi West 4.6 mph - N/A   Overcast
4:55 PM 51.1 °F - 34.0 °F 52% 29.97 in 10.0 mi WNW 10.4 mph - N/A   Overcast
5:55 PM 50.0 °F - 36.0 °F 59% 29.95 in 10.0 mi WSW 8.1 mph - 0.00 in   Clear
6:55 PM 48.9 °F - 37.0 °F 64% 29.96 in 10.0 mi NW 9.2 mph - N/A   Clear
7:55 PM 46.9 °F - 36.0 °F 66% 29.97 in 10.0 mi Calm Calm - N/A   Clear
8:55 PM 45.0 °F 43.5 °F 36.0 °F 71% 29.95 in 10.0 mi NNW 3.5 mph - N/A   Clear
9:55 PM 46.0 °F 44.8 °F 37.0 °F 71% 29.95 in 10.0 mi NNW 3.5 mph - N/A   Mostly Cloudy
10:55 PM 46.0 °F - 37.0 °F 71% 29.94 in 10.0 mi Calm Calm - N/A   Overcast
11:55 PM 46.9 °F - 37.9 °F 71% 29.94 in 10.0 mi West 6.9 mph - N/A   Overcast